Погода в Белокаменке

Россия / Пензенская область     52°54′22″N   44°21′04″E
темп.,
°C
ветер,
м/с
пор.,
м/с
влажн.,
%
обл.,
%
осадки,
мм/ч
давл.,
гПа
погр.,
м
14 апреля, ср
ср1400:00+9юв4106564 0.0 1028165
03:00+8юв486621 0.0 1027108
06:00+7вюв497140 0.0 1026121
09:00+13юв6105113 0.0 1025391
12:00+17юв79365 0.0 10231063
15:00+18юв79340 0.0 10221491
18:00+16юв49445 0.0 1021232
21:00+11вюв495789 0.0 1021144
15 апреля, чт
чт1500:00+9вюв486771 0.0 1020130
03:00+8юв467385 0.0 102071
06:00+7вюв3677100 0.0 101986
09:00+13вюв465687 0.0 1018273
12:00+18вюв573970 0.0 10171040
15:00+20юв563481 0.0 10161605
18:00+17юв334778 0.0 101644
21:00+14в335998 0.0 101637
16 апреля, пт
пт1600:00+11в346889 0.0 101650
03:00+10в336968 0.0 101736
06:00+9всв3673100 0.0 101794
09:00+13в5856100 0.0 1018286
12:00+18в4640100 0.0 10181081
15:00+19в4532100 0.0 10182236
18:00+16в4848100 0.0 1018208
21:00+13всв6127299 0.0 1020373
17 апреля, сб
сб1700:00+10всв5118381 0.0 1021295
03:00+8всв5119037 0.0 1021255
06:00+7всв6119021 0.0 1022292
09:00+11всв797068 0.0 1022520
12:00+16в78536 0.0 10211140
15:00+16в784847 0.6 10211614
18:00+14всв710575 0.6 1022936
21:00+10всв714541 0.6 1023478
18 апреля, вс
вс1800:00+7всв512587 0.0 1024382
03:00+5всв5116337 0.0 1025312
06:00+4всв512668 0.0 1025342
09:00+9в79475 0.0 1025748
12:00+13в68368 0.0 10241464
15:00+14всв67335 0.0 10241942
18:00+12всв694321 0.0 1024905
21:00+9всв613535 0.0 1026472